Location: Bovenkerk
(52.2915°N, 4.8336°E)
Time: 12:46:20
(UTC+00:00)

Terra - Pass Details

Date: 09 April 2020
Orbit: 701 x 703 km, 98.2° (Epoch: 28 May)

Event Time Altitude Azimuth Distance (km) Brightness Sun altitude
Exits shadow 22:08:18 41° 251° (WSW) 1,021 2.6 -26.4°
Maximum altitude 22:08:38 42° 262° (W) 1,011 2.7 -26.5°
Drops below altitude 10° 22:13:11 10° 333° (NNW) 2,185 5.4 -26.8°
Sets 22:15:34 0° 341° (NNW) 3,108 6.5 -26.9°
